Melbourne Airport, Australia

5:50 PM AEST on July 25, 2017 (GMT +1000)
Melbourne International

Weather History for YMML - November, 2012

Change the Weather History Date:

Thursday, November 22, 2012

  Actual Average Record
Temperature  
Mean Temperature 56 °F -  
Max Temperature 68 °F 72 °F 91 °F (1997)
Min Temperature 45 °F 50 °F 42 °F (1996)
Degree Days  
Heating Degree Days 8    
Growing Degree Days 6 (Base 50)    
Moisture  
Dew Point 44 °F    
Average Humidity 61    
Maximum Humidity 87    
Minimum Humidity 30    
Precipitation  
Precipitation 0.00 in 0.07 in - ()
Sea Level Pressure  
Sea Level Pressure 30.09 in    
Wind  
Wind Speed 9 mph ()    
Max Wind Speed 18 mph    
Max Gust Speed 22 mph    
Visibility 7.9 miles    
Events      
Averages and records for this station are not official NWS values.
T = Trace of Precipitation, MM = Missing Value Source: Averaged Metar Reports

Daily Weather History Graph

Daily Weather History Graph

Search for Another Location

Airport or City:

Trip Planner

Search our weather history database for the weather conditions in past years. The results will help you decide how hot, cold, wet, or windy it might be!

Date:

Astronomy

Nov. 22, 2012 Rise Set
Actual Time 5:56 AM AEDT 8:17 PM AEDT
Civil Twilight 5:26 AM AEDT 8:47 PM AEDT
Nautical Twilight 4:49 AM AEDT 9:24 PM AEDT
Astronomical Twilight 4:09 AM AEDT 10:05 PM AEDT
Moon 2:26 PM AEDT (11/22) 2:10 AM AEDT (11/22)
Length of Visible Light 15h 21m
Length of Day
14h 21m
Waxing Gibbous, 65% of the Moon is Illuminated
Nov 22
Waxing Gibbous
Nov 29
Full
Dec 7
Last Quarter
Dec 13
New
Dec 20
First Quarter

Hourly Weather History & Observations

Time (AEDT) Temp. Windchill Dew Point Humidity Pressure Visibility Wind Dir Wind Speed Gust Speed Precip Events Conditions
12:00 AM 48 °F - 39 °F 63% 30.10 in 12 mi SW 8.1 mph - -   Haze
12:00 AM 48.2 °F - 39.2 °F 71% 30.09 in - SW 8.1 mph - N/A   Clear
12:30 AM 48.2 °F - 39.2 °F 71% 30.09 in - WSW 6.9 mph - N/A   Clear
1:00 AM 46.4 °F 42.4 °F 39.2 °F 76% 30.09 in - West 8.1 mph - N/A   Clear
1:30 AM 46.4 °F 42.9 °F 39.2 °F 76% 30.09 in - WSW 6.9 mph - N/A   Clear
2:00 AM 47 °F - 41 °F 71% 30.09 in - WSW 5.8 mph - -  
2:00 AM 46.4 °F 43.5 °F 41.0 °F 81% 30.09 in 6.2 mi WSW 5.8 mph - N/A   Mostly Cloudy
2:30 AM 46.4 °F 43.5 °F 41.0 °F 81% 30.06 in 6.2 mi West 5.8 mph - N/A   Mostly Cloudy
3:00 AM 48 °F - 40 °F 66% 30.07 in 12 mi WSW 6.9 mph - -   Haze
3:00 AM 48.2 °F - 41.0 °F 76% 30.06 in 6.2 mi WSW 6.9 mph - N/A   Mostly Cloudy
3:30 AM 46.4 °F 43.5 °F 41.0 °F 81% 30.06 in - WSW 5.8 mph - N/A   Clear
4:00 AM 46.4 °F 42.9 °F 41.0 °F 81% 30.06 in - West 6.9 mph - N/A   Clear
4:30 AM 46.4 °F 43.5 °F 41.0 °F 81% 30.06 in - West 5.8 mph - N/A   Clear
5:00 AM 46 °F - 41 °F 75% 30.06 in - NW 4.6 mph - -  
5:00 AM 46.4 °F 44.3 °F 41.0 °F 81% 30.06 in 6.2 mi NW 4.6 mph - N/A   Mostly Cloudy
5:30 AM 44.6 °F 42.2 °F 41.0 °F 87% 30.06 in 6.2 mi WNW 4.6 mph - N/A   Mostly Cloudy
6:00 AM 47 °F - 43 °F 79% 30.08 in 12 mi West 6.9 mph - -   Haze
6:00 AM 46.4 °F 42.9 °F 42.8 °F 87% 30.06 in 6.2 mi West 6.9 mph - N/A   Scattered Clouds
6:30 AM 48.2 °F - 42.8 °F 82% 30.09 in 6.2 mi West 8.1 mph - N/A   Mostly Cloudy
7:00 AM 50.0 °F - 42.8 °F 76% 30.09 in 6.2 mi West 9.2 mph - N/A   Mostly Cloudy
7:30 AM 51.8 °F - 42.8 °F 71% 30.09 in 6.2 mi WSW 8.1 mph - N/A   Mostly Cloudy
8:00 AM 55 °F - 42 °F 51% 30.12 in - WSW 9.2 mph - -  
8:00 AM 55.4 °F - 42.8 °F 63% 30.12 in 6.2 mi WSW 9.2 mph - N/A   Mostly Cloudy
8:30 AM 57.2 °F - 41.0 °F 55% 30.12 in 6.2 mi SW 11.5 mph - N/A   Mostly Cloudy
9:00 AM 59 °F - 41 °F 41% 30.12 in 12 mi SSW 11.5 mph - -   Haze
9:00 AM 59.0 °F - 41.0 °F 51% 30.12 in 6.2 mi SSW 11.5 mph - N/A   Mostly Cloudy
9:30 AM 59.0 °F - 39.2 °F 48% 30.12 in 6.2 mi SSW 9.2 mph - N/A   Mostly Cloudy
10:00 AM 60.8 °F - 39.2 °F 45% 30.12 in 6.2 mi South 12.7 mph - N/A   Mostly Cloudy
10:30 AM 60.8 °F - 41.0 °F 48% 30.12 in 6.2 mi SSW 12.7 mph - N/A   Mostly Cloudy
11:00 AM 62 °F - 40 °F 33% 30.13 in - SW 11.5 mph - -  
11:00 AM 62.6 °F - 41.0 °F 45% 30.12 in 6.2 mi SW 11.5 mph - N/A   Mostly Cloudy
11:30 AM 62.6 °F - 41.0 °F 45% 30.12 in 6.2 mi SSE 8.1 mph 21.9 mph N/A   Scattered Clouds
12:00 PM 64 °F - 42 °F 33% 30.11 in 19 mi WSW 8.1 mph - -   Partly Cloudy
12:00 PM 64.4 °F - 42.8 °F 45% 30.09 in 6.2 mi WSW 8.1 mph - N/A   Scattered Clouds
12:30 PM 64.4 °F - 41.0 °F 42% 30.09 in - SW 10.4 mph - N/A   Unknown
1:00 PM 64.4 °F - 41.0 °F 42% 30.09 in 6.2 mi South 11.5 mph - N/A   Partly Cloudy
1:30 PM 66.2 °F - 41.0 °F 40% 30.09 in 6.2 mi South 12.7 mph - N/A   Partly Cloudy
2:00 PM 67 °F - 43 °F 30% 30.09 in - South 12.7 mph - -  
2:00 PM 66.2 °F - 42.8 °F 43% 30.09 in - South 12.7 mph - N/A   Clear
2:30 PM 66.2 °F - 42.8 °F 43% 30.09 in - SSE 11.5 mph - N/A   Clear
3:00 PM 67 °F - 44 °F 31% 30.08 in 19 mi SSE 13.8 mph - -   Partly Cloudy
3:00 PM 68.0 °F - 44.6 °F 43% 30.06 in - SSE 13.8 mph - N/A   Clear
3:30 PM 66.2 °F - 44.6 °F 46% 30.06 in 6.2 mi SSE 13.8 mph - N/A   Partly Cloudy
4:00 PM 66.2 °F - 44.6 °F 46% 30.06 in 6.2 mi SSE 17.3 mph - N/A   Partly Cloudy
4:30 PM 64.4 °F - 44.6 °F 49% 30.06 in 6.2 mi South 18.4 mph - N/A   Scattered Clouds
5:00 PM 64 °F - 46 °F 41% 30.09 in - SSE 18.4 mph - -  
5:00 PM 64.4 °F - 46.4 °F 52% 30.06 in 6.2 mi SSE 18.4 mph - N/A   Mostly Cloudy
5:30 PM 62.6 °F - 46.4 °F 55% 30.09 in 6.2 mi South 17.3 mph - N/A   Mostly Cloudy
6:00 PM 64 °F - 47 °F 43% 30.08 in 19 mi South 17.3 mph - -   Partly Cloudy
6:00 PM 64.4 °F - 46.4 °F 52% 30.06 in 6.2 mi South 17.3 mph - N/A   Scattered Clouds
6:30 PM 62.6 °F - 46.4 °F 55% 30.09 in 6.2 mi South 16.1 mph - N/A   Partly Cloudy
7:00 PM 60.8 °F - 48.2 °F 63% 30.09 in 6.2 mi South 17.3 mph - N/A   Partly Cloudy
7:30 PM 59.0 °F - 48.2 °F 67% 30.09 in 6.2 mi South 17.3 mph - N/A   Partly Cloudy
8:00 PM 59 °F - 48 °F 58% 30.11 in - South 12.7 mph - -  
8:00 PM 59.0 °F - 48.2 °F 67% 30.09 in 6.2 mi South 12.7 mph - N/A   Partly Cloudy
8:30 PM 57.2 °F - 48.2 °F 72% 30.09 in 6.2 mi SSE 11.5 mph - N/A   Partly Cloudy
9:00 PM 56 °F - 49 °F 71% 30.11 in 19 mi South 8.1 mph - -   Partly Cloudy
9:00 PM 55.4 °F - 50.0 °F 82% 30.09 in 6.2 mi South 8.1 mph - N/A   Partly Cloudy
9:30 PM 55.4 °F - 50.0 °F 82% 30.09 in 6.2 mi South 8.1 mph - N/A   Partly Cloudy
10:00 PM 55.4 °F - 50.0 °F 82% 30.12 in 6.2 mi South 8.1 mph - N/A   Partly Cloudy
10:30 PM 55.4 °F - 50.0 °F 82% 30.12 in 6.2 mi South 6.9 mph - N/A   Mostly Cloudy
11:00 PM 57 °F - 51 °F 73% 30.13 in - South 6.9 mph - -  
11:00 PM 57.2 °F - 50.0 °F 77% 30.12 in 6.2 mi South 6.9 mph - N/A   Mostly Cloudy
11:30 PM 57.2 °F - 48.2 °F 72% 30.12 in 6.2 mi South 6.9 mph - N/A   Mostly Cloudy